Station: Macquarie Island  

  Atmospheric Gas Attenuation - ITU Rec 676-11   ----------------- dB/100km -----------------
Date Time Temp RH % AH g/m3 Dew Point Wind Direction Speed kph Gust kph Barometer mB Rainfall Since 9am 24GHz 47GHz 76GHz 122GHz 134GHz 241GHz
31/08 17:20 0.9 61 3.15 -5.8 44 72 1001.8 1.6 8.4 20.2 23.2 60.1 39.0 128.5
31/08 17:10 0.6 63 3.19 -5.6 48 76 1001.8 1.6 8.5 20.3 23.4 60.8 39.7 130.8
31/08 17:00 0.7 77 3.92 -2.9 35 72 1001.7 1.6 10.0 21.4 26.2 68.1 48.8 163.0
31/08 16:50 0.4 85 4.24 -1.8 32 52 1001.7 1.2 10.7 22.0 27.5 71.8 53.2 178.3
31/08 16:40 0 87 4.22 -1.9 30 48 1002 0.8 10.7 22.1 27.6 71.9 53.2 178.3
31/08 16:30 -0.5 88 4.12 -2.2 20 35 1002.1 0.8 10.5 22.1 27.4 71.3 52.2 174.8
31/08 16:20 -0.7 88 4.07 -2.4 26 46 1002.1 0.6 10.4 22.0 27.3 71.0 51.7 172.9
31/08 16:10 -0.6 84 3.91 -3 39 72 1002 0.4 10.0 21.8 26.6 69.2 49.5 165.3
31/08 16:00 0.8 74 3.79 -3.3 39 56 1001.6 0 9.7 21.2 25.6 66.7 47.1 156.9
31/08 15:50 0.8 73 3.74 -3.5 41 72 1001.5 0 9.6 21.1 25.4 66.2 46.5 154.7
31/08 15:40 1 70 3.64 -3.8 20 33 1001.4 0 9.4 20.9 25.0 65.0 45.1 149.8
31/08 15:30 1.6 65 3.52 -4.3 33 61 1001.5 0 9.1 20.6 24.4 63.3 43.2 143.4
31/08 15:20 1.6 61 3.3 -5.1 32 57 1001.3 0 8.7 20.3 23.5 61.1 40.5 133.8
31/08 15:10 1.7 56 3.05 -6.1 33 54 1001.1 0 8.1 19.9 22.6 58.5 37.4 122.9
31/08 15:00 1.6 54 2.92 -6.7 32 61 1001.1 0 7.8 19.7 22.1 57.3 35.9 117.5
31/08 14:50 1.6 50 2.71 -7.7 35 52 1001.1 0 7.4 19.4 21.4 55.3 33.3 108.6
31/08 14:40 1.6 54 2.92 -6.7 32 63 1001 0 7.8 19.7 22.1 57.3 35.9 117.5
31/08 14:30 1.4 62 3.31 -5.1 28 52 1000.9 0 8.7 20.3 23.6 61.3 40.7 134.5
31/08 14:20 1.4 58 3.1 -5.9 35 57 1000.7 0 8.2 20.0 22.8 59.2 38.1 125.4
31/08 14:10 1.4 52 2.78 -7.4 35 61 1000.6 0 7.5 19.5 21.7 56.0 34.2 111.8
31/08 14:00 1.3 52 2.76 -7.5 28 54 1000.4 0 7.5 19.5 21.6 55.9 34.0 111.0
31/08 13:50 1.1 66 3.45 -4.5 35 61 1000.2 0 9.0 20.6 24.2 62.9 42.6 141.1
31/08 13:40 1 67 3.48 -4.4 33 59 1000.2 0 9.1 20.6 24.3 63.3 43.0 142.6
31/08 13:30 1.3 60 3.18 -5.6 24 46 1000.3 0 8.4 20.1 23.1 60.0 39.1 129.0
31/08 13:20 1.5 58 3.12 -5.8 30 48 1000 0 8.3 20.0 22.9 59.3 38.3 126.1
31/08 13:10 1.4 61 3.26 -5.3 28 50 999.9 0 8.6 20.2 23.4 60.7 40.1 132.3
31/08 13:00 1.4 57 3.04 -6.2 30 65 999.9 0 8.1 19.9 22.6 58.5 37.4 122.8
31/08 12:50 1.4 55 2.94 -6.6 41 74 999.8 0 7.9 19.7 22.2 57.5 36.1 118.5
31/08 12:40 1.5 51 2.74 -7.5 44 63 999.9 0 7.5 19.4 21.5 55.5 33.7 109.9
31/08 12:30 1.3 59 3.13 -5.8 44 89 999.6 0 8.3 20.0 22.9 59.5 38.5 126.8
31/08 12:20 1.3 61 3.24 -5.4 50 69 999.6 0 8.5 20.2 23.3 60.6 39.8 131.5
31/08 12:10 1.4 61 3.26 -5.3 22 28 999 0 8.6 20.2 23.4 60.6 40.0 132.1
31/08 12:00 1.4 59 3.15 -5.7 32 57 999 0 8.3 20.0 23.0 59.5 38.7 127.4
31/08 11:50 1.3 60 3.18 -5.6 33 43 998.9 0 8.4 20.1 23.1 59.9 39.1 128.8
31/08 11:40 1.2 60 3.16 -5.7 35 48 998.9 0 8.4 20.1 23.0 59.8 38.9 128.1
31/08 11:30 1.3 56 2.97 -6.5 41 65 998.8 0 8.0 19.8 22.3 57.8 36.5 119.8
31/08 11:20 1.3 56 2.97 -6.5 35 43 998.5 0 8.0 19.7 22.3 57.8 36.5 119.8
31/08 11:10 1.2 58 3.06 -6.1 50 65 998.2 0 8.2 19.9 22.7 58.7 37.6 123.7
31/08 11:00 1.3 55 2.92 -6.7 41 69 998.5 0 7.8 19.7 22.1 57.3 35.9 117.6
31/08 10:50 1.4 57 3.04 -6.2 44 61 998.2 0 8.1 19.8 22.5 58.4 37.3 122.6
31/08 10:40 1.5 59 3.17 -5.6 33 52 997.8 0 8.4 20.0 23.0 59.6 38.8 128.0
31/08 10:30 0.8 68 3.49 -4.4 39 83 997.9 0 9.1 20.6 24.4 63.3 43.1 143.1
31/08 10:20 0.6 76 3.84 -3.1 41 65 997.7 0 9.8 21.2 25.8 67.1 47.7 159.0
31/08 10:10 0.6 69 3.49 -4.4 44 82 998.1 0 9.1 20.7 24.4 63.5 43.3 143.5
31/08 10:00 1.1 67 3.51 -4.3 33 67 997.5 0 9.1 20.6 24.3 63.3 43.2 143.4
31/08 09:50 1.1 55 2.88 -6.9 48 59 997.6 0 7.8 19.6 22.0 57.0 35.5 116.1
31/08 09:40 1.5 51 2.74 -7.5 33 46 997.5 0 7.5 19.3 21.4 55.4 33.6 109.6
31/08 09:30 1 53 2.75 -7.5 41 65 997.5 0 7.5 19.5 21.6 55.8 33.9 110.7
31/08 09:20 1 58 3.01 -6.3 41 65 997.2 0 8.0 19.8 22.5 58.3 37.1 121.8
31/08 09:10 0.8 57 2.92 -6.7 33 43 997.2 0 7.9 19.7 22.2 57.6 36.1 118.2
31/08 09:00 0.7 55 2.8 -7.3 32 41 997.1 0 7.6 19.6 21.8 56.5 34.7 113.2
31/08 08:50 0.9 52 2.68 -7.8 41 61 997 2.8 7.3 19.4 21.3 55.2 33.1 107.8
31/08 08:40 0.7 54 2.75 -7.5 33 48 996.8 2.8 7.5 19.5 21.6 56.0 34.0 111.1
31/08 08:30 0.6 54 2.73 -7.6 39 78 996.7 2.8 7.5 19.5 21.6 55.8 33.8 110.3
31/08 08:20 0.5 61 3.06 -6.1 35 52 996.3 2.8 8.2 20.0 22.8 59.1 37.9 124.6
31/08 08:10 0.5 58 2.91 -6.8 33 52 996.1 2.8 7.8 19.7 22.2 57.6 36.1 118.1
31/08 08:00 0.2 71 3.49 -4.4 35 61 995.8 2.8 9.1 20.7 24.5 63.6 43.4 143.9
31/08 07:50 -0.8 74 3.4 -4.8 24 33 995.8 2.8 8.9 20.8 24.4 63.5 42.8 141.7
31/08 07:40 0 67 3.25 -5.4 35 43 995.3 2.8 8.6 20.3 23.6 61.3 40.5 133.6
31/08 07:30 -0.7 78 3.61 -4 43 78 995.1 2.8 9.4 21.0 25.2 65.6 45.4 150.8
31/08 07:20 -1.2 85 3.8 -3.4 28 35 994.8 2.8 9.8 21.5 26.1 68.0 48.1 160.4
31/08 07:10 -0.1 74 3.57 -4.2 43 69 995.1 2.6 9.3 20.8 24.8 64.7 44.5 147.9
31/08 07:00 0.4 73 3.64 -3.9 33 65 994.9 2.6 9.4 20.8 24.9 64.9 45.1 150.1
31/08 06:50 0.7 68 3.46 -4.5 39 52 994.1 2.4 9.0 20.5 24.1 62.8 42.7 141.4
31/08 06:40 0 78 3.78 -3.4 54 78 993.8 2.4 9.7 21.1 25.6 66.6 47.1 157.0
31/08 06:30 -0.1 75 3.61 -4 43 70 993.8 2.4 9.4 20.9 24.9 65.0 45.0 149.5
31/08 06:20 -0.7 77 3.56 -4.2 24 35 994 2.4 9.3 20.9 24.9 65.0 44.7 148.4
31/08 06:10 -0.1 77 3.71 -3.6 54 70 994.1 2.4 9.6 21.0 25.3 66.0 46.3 154.0
31/08 06:00 0 77 3.74 -3.5 56 85 993.6 2.4 9.6 21.0 25.4 66.2 46.6 155.1
31/08 05:50 -0.6 78 3.63 -3.9 52 72 993.5 2.4 9.4 21.0 25.2 65.6 45.5 151.3
31/08 05:40 -1.2 80 3.57 -4.2 46 72 994 2.4 9.3 21.1 25.1 65.5 45.1 149.8
31/08 05:30 0.7 66 3.36 -4.9 56 85 993.4 2.4 8.8 20.3 23.7 61.7 41.4 137.0
31/08 05:20 0.9 62 3.2 -5.5 61 76 993.2 2.4 8.5 20.0 23.1 60.0 39.3 129.7
31/08 05:10 0.4 65 3.24 -5.4 41 59 993.1 2.4 8.6 20.2 23.4 60.8 40.0 132.2
31/08 05:00 0.2 68 3.35 -5 37 87 993.5 2.4 8.8 20.4 23.9 62.0 41.5 137.4
31/08 04:50 -0.5 84 3.94 -2.9 22 30 992.9 2.4 10.1 21.4 26.3 68.7 49.4 165.1
31/08 04:40 -1 85 3.85 -3.2 20 35 993.2 2.4 9.9 21.4 26.1 68.2 48.6 162.1
31/08 04:30 -0.8 81 3.72 -3.6 39 74 993.4 2.2 9.6 21.2 25.6 66.7 46.8 155.8
31/08 04:20 -0.6 75 3.49 -4.5 26 37 993.1 2.2 9.1 20.8 24.6 64.1 43.7 145.0
31/08 04:10 -1.2 81 3.62 -4 24 32 993 2.2 9.4 21.1 25.3 65.9 45.7 151.9
31/08 04:00 -1.4 78 3.43 -4.7 39 61 993 2.2 9.0 20.9 24.6 64.1 43.4 143.7
31/08 03:50 -0.9 74 3.37 -4.9 30 35 993 2.2 8.9 20.6 24.2 63.1 42.4 140.1
31/08 03:40 -0.7 72 3.33 -5.1 35 67 992.4 2.2 8.8 20.5 24.0 62.5 41.7 137.9
31/08 03:30 -0.5 73 3.42 -4.7 30 61 992.5 2 9.0 20.6 24.3 63.2 42.7 141.6
31/08 03:20 -0.4 73 3.45 -4.6 35 46 992.2 2 9.0 20.6 24.4 63.4 43.1 142.7
31/08 03:10 -0.7 72 3.33 -5.1 33 46 992.2 2 8.8 20.5 24.0 62.5 41.7 137.9
31/08 03:00 -0.5 64 3 -6.5 35 59 992.2 2 8.1 20.0 22.7 59.0 37.5 123.1
31/08 02:50 -0.9 68 3.1 -6 30 35 992.2 2 8.3 20.2 23.2 60.3 38.9 128.1
31/08 02:40 -1.6 73 3.17 -5.8 32 43 992.3 2 8.5 20.5 23.7 61.5 40.2 132.3
31/08 02:30 -2.1 81 3.4 -4.9 35 72 992.4 2 9.0 20.9 24.7 64.3 43.4 143.6
31/08 02:20 -2.1 76 3.19 -5.7 41 48 992.4 2 8.5 20.6 23.9 62.2 40.7 134.1
31/08 02:10 -1 70 3.17 -5.8 37 44 991.8 1.8 8.4 20.3 23.5 61.0 39.8 131.3
31/08 02:00 -2.1 87 3.65 -4 28 44 991.7 1.8 9.5 21.3 25.7 66.9 46.6 154.9
31/08 01:50 -2.6 92 3.72 -3.7 22 30 991.8 1.8 9.7 21.5 26.1 68.1 47.8 159.1
31/08 01:40 -2.8 92 3.67 -3.9 19 24 992 1.8 9.6 21.5 26.0 67.7 47.3 157.2
31/08 01:30 -2.8 81 3.23 -5.6 37 72 992 1.6 8.6 20.8 24.2 63.1 41.5 137.0
31/08 01:20 -1.1 68 3.06 -6.2 26 32 991.5 1.6 8.2 20.2 23.1 60.0 38.5 126.5
31/08 01:10 -1.9 71 3.02 -6.4 30 41 991.1 1.6 8.1 20.3 23.1 60.1 38.4 126.0
31/08 01:00 -3.1 77 3.01 -6.5 37 74 991.2 1.6 8.1 20.5 23.4 61.0 38.8 127.5
31/08 00:50 -1.6 77 3.34 -5.1 30 39 991.2 1.4 8.8 20.7 24.3 63.2 42.3 139.8

Last Refresh: 31-Aug-2026 16:54:28

Bureau of Meteorology